Weather Roundup
Issued by NWS Corpus Christi, TX

Home | Current Version | Previous Version | Text Only | Print | Product List | Glossary On
Versions: 1 2 3 4 5 6 7 8 9 10 11 12 13 14 15 16 17 18 19 20 21 22 23 24 25 26 27 28 29 30 31 32 33 34 35 36 37 38 39 40 41 42 43 44 45 46 47 48 49 50
000
ASUS44 KCRP 301210
HRRCRP

SOUTH TEXAS REGIONAL WEATHER ROUNDUP
NATIONAL WEATHER SERVICE CORPUS CHRISTI TX
700 AM CDT TUE SEP 30 2014


TXZ229>244-301300-
...CORPUS CHRISTI AREA OBSERVATIONS...

CITY           SKY/WX    TMP DP  RH WIND       PRES   REMARKS
CORPUS CHRISTI CLOUDY    74  73  97 CALM      29.84R
NAS CORPUS CHR CLOUDY    76  76 100 NE5       29.83S
ROCKPORT       CLEAR     75  73  93 N6        29.84R
KINGSVILLE NAS HVY RAIN  76  76 100 NE3       29.85R FOG
ALICE          CLEAR     73  71  93 N3        29.84R
FALFURRIAS     MOCLDY    74  73  99 CALM      29.83S
$$

...VICTORIA AREA OBSERVATIONS...

CITY           SKY/WX    TMP DP  RH WIND       PRES   REMARKS
VICTORIA       FOG       74  72  93 N5        29.87R VSB 1/4
BEEVILLE       FOG       72  72 100 N6        29.86R VSB 1/2
PLEASANTON     CLEAR     68  66  93 CALM      29.88S
SAN ANTONIO    CLEAR     67  63  87 NW3       29.90R
$$

...LAREDO AREA OBSERVATIONS...

CITY           SKY/WX    TMP DP  RH WIND       PRES   REMARKS
LAREDO         CLEAR     73  73 100 CALM      29.88F
COTULLA        CLEAR     72  68  87 CALM      29.88R
DEL RIO        CLEAR     69  66  90 E7        29.86S
MCALLEN        LGT RAIN  76  75  97 CALM      29.84R
HEBBRONVILLE     N/A     71  70  95 CALM      29.87S
$$

...OTHER TEXAS OBSERVATIONS...

CITY           SKY/WX    TMP DP  RH WIND       PRES   REMARKS
BROWNSVILLE    FOG       75  73  94 CALM      29.83S VSB 3/4
HOUSTON        PTCLDY    72  70  93 CALM      29.87R
COL. STATION   MOCLDY    71  68  90 E5        29.88S
AUSTIN         PTCLDY    62  61  96 CALM      29.89S
WACO           CLEAR     65  60  84 NE3       29.89S
FORT WORTH     MOCLDY    70  65  84 SE3       29.90R
WICHITA FALLS  CLEAR     63  60  90 S3        29.88R
LUBBOCK        PTCLDY    62  57  83 S9        29.91S
EL PASO        CLEAR     70  52  52 N3        29.95R
$$

...MARINE OBSERVATIONS...

STATION/POSITION TIME  SKY/WX   TEMP    WIND        PRES    VSBY  WAVE   SWELL
                                AIR SEA DIR/SP/G                  HT/PER HT/PER
                 (UTC)          (F)     (DEG/KT/KT) (MB)    (MI)  (FT/S) (FT/S)
PORT ARANSAS     1200            76 80  220/  4/  5 1010.8R
BUOY 90 E PORT A 1200            82 83  110/  6/  8 1010.4R         2/ 6   2/ 6
BUOY 45 SE BAFFI 1200            80 83  260/  4/  6 1009.3R         2/ 5   2/ 5
BUOY 200 E PT IS 1200            80 83  130/  6/  6 1010.8R         1/ 6   2/ 6
BUOY 15 E GALVES 1200            80 81  100/  6/  8 1010.8R         1/ 6   2/ 6
$$


USA.gov is the U.S. government's official web portal to all federal, state and local government web resources and services.